Location: Nag� el Ma?a??a
(24.0667°N, 32.8833°E)
Time: 19:08:00
(UTC+00:00)

SJ 16-02 - Pass Details

Date: 26 January 2022
Orbit: 605 x 615 km, 75.0° (Epoch: 18 May)

Event Time Altitude Azimuth Distance (km) Brightness Sun altitude
Rises 17:06:45 0° 187° (S) 2,847 5.0 -22.0°
Reaches altitude 10° 17:08:59 10° 185° (S) 1,947 4.1 -22.5°
Enters shadow 17:12:38 58° 154° (SSE) 709 1.5 -23.3°
